Location: Bishopstone
(51.0167°N, 1.9000°W)
Time: 04:38:14
(UTC+00:00)

Cosmos 1602 Rocket - Pass Details

Date: 16 September 2019
Orbit: 603 x 634 km, 82.5° (Epoch: 23 October)

Event Time Altitude Azimuth Distance (km) Brightness Sun altitude
Rises 20:15:35 0° 356° (N) 2,902 7.5 -18.1°
Reaches altitude 10° 20:18:01 10° 5° (N) 1,986 6.4 -18.4°
Maximum altitude 20:22:01 33° 71° (ENE) 1,026 4.3 -19.0°
Enters shadow 20:22:09 33° 75° (ENE) 1,028 4.3 -19.0°
